Weather History for Edinburg, TX

Change the Weather History Date:

Thursday, October 31, 2013

  Actual Average (KMFE) Record (KMFE)
Temperature  
Mean Temperature 84 °F 74 °F  
Max Temperature 176 °F 85 °F 95 °F (2010)
Min Temperature 77 °F 63 °F 43 °F (1970)
Degree Days  
Heating Degree Days 0 1  
Month to date heating degree days 1  
Since 1 July heating degree days 5  
Cooling Degree Days 20 9  
Month to date cooling degree days 383  
Year to date cooling degree days 4182  
Growing Degree Days 34 (Base 50)    
Moisture  
Dew Point 71 °F    
Average Humidity 66    
Maximum Humidity 87    
Minimum Humidity 33    
Precipitation  
Precipitation 0.02 in 0.05 in 1.23 in (1985)
Month to date precipitation 2.08  
Year to date precipitation 20.12  
Sea Level Pressure  
Sea Level Pressure 29.83 in    
Wind  
Wind Speed 10 mph (SW)    
Max Wind Speed 16 mph    
Max Gust Speed 22 mph    
Visibility 8 miles    
Events Rain , Thunderstorm    
T = Trace of Precipitation, MM = Missing Value Source: NWS Daily Summary

Daily Weather History Graph

Daily Weather History Graph

Search for Another Location

Airport:

Trip Planner

Search our weather history database for the weather conditions in past years. The results will help you decide how hot, cold, wet, or windy it might be!

Date:

Astronomy

Oct. 31, 2013 Rise Set
Actual Time 7:41 AM CDT 6:50 PM CDT
Civil Twilight 7:17 AM CDT 7:14 PM CDT
Nautical Twilight 6:50 AM CDT 7:41 PM CDT
Astronomical Twilight 6:22 AM CDT 8:08 PM CDT
Moon 4:48 AM CDT (10/31) 4:56 PM CDT (10/31)
Length of Visible Light 11h 56m
Length of Day
11h 09m
Waning Crescent, 10% of the Moon is Illuminated
Oct 31
Waning Crescent
Nov 3
New
Nov 9
First Quarter
Nov 17
Full
Nov 25
Last Quarter

Hourly Weather History & Observations

Time (CDT) Temp. Heat Index Dew Point Humidity Pressure Visibility Wind Dir Wind Speed Gust Speed Precip Events Conditions
12:15 AM 81.3 °F 86.5 °F 73.6 °F 77% 29.84 in 10.0 mi SSE 13.8 mph - N/A   Clear
12:35 AM 81.5 °F 86.9 °F 73.6 °F 77% 29.84 in 10.0 mi South 10.4 mph 17.3 mph N/A   Clear
12:55 AM 81.5 °F 86.5 °F 73.0 °F 75% 29.83 in 10.0 mi SSE 10.4 mph - N/A   Clear
1:15 AM 81.5 °F 86.5 °F 72.9 °F 75% 29.82 in 10.0 mi SSE 10.4 mph 16.1 mph N/A   Scattered Clouds
1:35 AM 81.5 °F 86.7 °F 73.4 °F 76% 29.82 in 10.0 mi South 13.8 mph - N/A   Scattered Clouds
1:55 AM 81.5 °F 86.9 °F 73.8 °F 77% 29.82 in 10.0 mi South 12.7 mph 21.9 mph N/A   Mostly Cloudy
2:15 AM 81.5 °F 86.9 °F 73.8 °F 77% 29.82 in 10.0 mi South 12.7 mph 18.4 mph N/A   Scattered Clouds
2:35 AM 81.5 °F 87.2 °F 73.9 °F 78% 29.82 in 10.0 mi South 15.0 mph 21.9 mph N/A   Mostly Cloudy
2:55 AM 81.5 °F 87.2 °F 73.9 °F 78% 29.82 in 10.0 mi South 12.7 mph 17.3 mph N/A   Mostly Cloudy
3:15 AM 81.5 °F 87.2 °F 73.9 °F 78% 29.81 in 10.0 mi SSE 12.7 mph 19.6 mph N/A   Scattered Clouds
3:35 AM 81.5 °F 87.4 °F 74.3 °F 79% 29.81 in 10.0 mi South 16.1 mph - N/A   Mostly Cloudy
3:55 AM 81.7 °F 87.3 °F 73.9 °F 77% 29.81 in 10.0 mi South 11.5 mph 19.6 mph N/A   Overcast
4:15 AM 81.7 °F 87.6 °F 74.1 °F 78% 29.82 in 10.0 mi South 12.7 mph 19.6 mph N/A   Overcast
4:35 AM 81.5 °F 87.2 °F 73.9 °F 78% 29.81 in 10.0 mi SSE 13.8 mph 18.4 mph N/A   Mostly Cloudy
4:55 AM 81.5 °F 87.2 °F 73.9 °F 78% 29.81 in 10.0 mi SSE 13.8 mph 19.6 mph N/A   Mostly Cloudy
5:15 AM 81.5 °F 87.2 °F 73.9 °F 78% 29.83 in 10.0 mi South 9.2 mph 16.1 mph N/A   Mostly Cloudy
5:35 AM 81.5 °F 87.2 °F 74.1 °F 78% 29.83 in 10.0 mi South 8.1 mph - N/A   Mostly Cloudy
5:55 AM 81.0 °F 86.2 °F 73.9 °F 79% 29.82 in 10.0 mi South 9.2 mph - N/A   Mostly Cloudy
6:15 AM 81.1 °F 86.6 °F 74.1 °F 79% 29.83 in 10.0 mi South 8.1 mph - N/A   Mostly Cloudy
6:35 AM 81.5 °F 87.4 °F 74.3 °F 79% 29.83 in 10.0 mi South 6.9 mph - N/A   Overcast
6:55 AM 81.1 °F 86.8 °F 74.3 °F 80% 29.83 in 10.0 mi South 8.1 mph - N/A Rain Light Rain
7:15 AM 81.0 °F 86.3 °F 74.3 °F 80% 29.83 in 10.0 mi South 8.1 mph - N/A   Overcast
7:35 AM 80.6 °F 85.9 °F 74.5 °F 82% 29.84 in 7.0 mi South 5.8 mph - N/A   Heavy Drizzle
7:55 AM 79.7 °F - 75.0 °F 86% 29.85 in 5.0 mi SW 6.9 mph - 0.01 in Rain Light Rain
8:15 AM 79.7 °F - 75.2 °F 86% 29.85 in 4.0 mi SW 6.9 mph - 0.01 in Rain Rain
8:35 AM 79.3 °F - 75.2 °F 87% 29.86 in 4.0 mi SW 6.9 mph - 0.01 in   Drizzle
8:55 AM 79.5 °F - 75.4 °F 87% 29.86 in 4.0 mi SSW 6.9 mph - 0.01 in Rain Rain
9:15 AM 80.2 °F 85.7 °F 75.6 °F 86% 29.85 in 7.0 mi South 9.2 mph - N/A   Overcast
9:35 AM 81.5 °F 88.0 °F 75.6 °F 82% 29.85 in 7.0 mi South 10.4 mph - N/A Thunderstorm Overcast
9:55 AM 81.5 °F 87.8 °F 75.2 °F 81% 29.86 in 7.0 mi South 10.4 mph - N/A Thunderstorm Mostly Cloudy
10:15 AM 82.4 °F 89.5 °F 75.4 °F 79% 29.86 in 7.0 mi South 12.7 mph - N/A Thunderstorm Scattered Clouds
10:35 AM 84.0 °F 91.5 °F 74.7 °F 73% 29.85 in 7.0 mi South 13.8 mph - N/A Thunderstorm Scattered Clouds
10:55 AM 83.7 °F 91.0 °F 74.5 °F 74% 29.86 in 7.0 mi South 9.2 mph - N/A   Mostly Cloudy
11:15 AM 83.3 °F 89.9 °F 73.9 °F 73% 29.87 in 7.0 mi SW 10.4 mph - N/A   Overcast
11:35 AM 83.8 °F 90.8 °F 74.1 °F 72% 29.87 in 7.0 mi SW 8.1 mph - N/A   Scattered Clouds
11:55 AM 86.2 °F 93.8 °F 73.8 °F 66% 29.87 in 7.0 mi SW 5.8 mph - N/A   Clear
12:15 PM 86.7 °F 94.1 °F 73.2 °F 64% 29.86 in 5.0 mi SSW 5.8 mph - N/A   Haze
12:35 PM 86.2 °F 93.4 °F 73.2 °F 65% 29.86 in 7.0 mi West 4.6 mph - N/A   Mostly Cloudy
12:55 PM 87.1 °F 93.6 °F 72.3 °F 61% 29.85 in 7.0 mi WNW 9.2 mph - N/A   Scattered Clouds
1:15 PM 86.9 °F 93.7 °F 72.3 °F 62% 29.85 in 7.0 mi West 9.2 mph - N/A Rain Light Rain
1:35 PM 88.0 °F 93.8 °F 71.1 °F 57% 29.83 in 7.0 mi West 5.8 mph - N/A   Scattered Clouds
1:55 PM 89.4 °F 95.3 °F 70.9 °F 54% 29.82 in 7.0 mi NW 5.8 mph - N/A   Scattered Clouds
2:15 PM 89.6 °F 95.7 °F 70.7 °F 54% 29.82 in 7.0 mi WNW 4.6 mph - N/A   Clear
2:35 PM 90.9 °F 96.7 °F 70.7 °F 51% 29.80 in 7.0 mi WNW 10.4 mph - N/A Thunderstorm Clear
2:55 PM 91.2 °F 96.5 °F 69.8 °F 49% 29.80 in 7.0 mi West 4.6 mph - N/A   Clear
3:15 PM 90.5 °F 94.6 °F 68.5 °F 48% 29.79 in 7.0 mi West 3.5 mph - N/A   Clear
3:35 PM 90.0 °F 95.0 °F 69.6 °F 51% 29.79 in 7.0 mi NNW 4.6 mph - N/A   Mostly Cloudy
3:55 PM 90.9 °F 95.8 °F 69.4 °F 49% 29.78 in 10.0 mi Calm Calm - N/A   Scattered Clouds
4:15 PM 92.5 °F 96.9 °F 68.2 °F 45% 29.78 in 7.0 mi North 5.8 mph - N/A   Scattered Clouds
4:35 PM 91.9 °F 92.9 °F 63.1 °F 38% 29.78 in 7.0 mi NNW 9.2 mph - N/A   Mostly Cloudy
4:55 PM 92.5 °F 91.9 °F 59.7 °F 33% 29.78 in 10.0 mi NW 8.1 mph - N/A   Scattered Clouds
5:15 PM 92.7 °F 92.5 °F 60.3 °F 34% 29.78 in 7.0 mi NNW 8.1 mph - N/A   Clear
5:35 PM 91.8 °F 91.9 °F 61.2 °F 36% 29.78 in 7.0 mi NNW 8.1 mph - N/A   Clear
5:55 PM 91.4 °F 92.1 °F 62.8 °F 38% 29.79 in 7.0 mi NW 4.6 mph - N/A   Clear
6:15 PM 90.3 °F 91.5 °F 63.5 °F 41% 29.79 in 10.0 mi NW 4.6 mph - N/A   Clear
6:35 PM 89.4 °F 90.5 °F 63.9 °F 42% 29.80 in 7.0 mi NW 4.6 mph - N/A   Clear
6:55 PM 86.5 °F 88.4 °F 65.5 °F 49% 29.80 in 5.0 mi NW 4.6 mph - N/A   Haze
7:15 PM 84.9 °F 87.1 °F 66.2 °F 53% 29.81 in 7.0 mi NW 3.5 mph - N/A   Clear
7:35 PM 83.5 °F 86.0 °F 66.7 °F 57% 29.82 in 10.0 mi North 6.9 mph - N/A   Clear
7:55 PM 84.2 °F 86.1 °F 65.3 °F 53% 29.82 in 5.0 mi North 5.8 mph - N/A   Haze
8:15 PM 83.5 °F 85.3 °F 65.5 °F 54% 29.83 in 10.0 mi North 5.8 mph - N/A   Clear
8:35 PM 83.3 °F 85.1 °F 65.3 °F 54% 29.83 in 10.0 mi North 6.9 mph - N/A   Clear
8:55 PM 83.3 °F 85.1 °F 65.1 °F 54% 29.84 in 10.0 mi North 5.8 mph - N/A   Clear
9:15 PM 82.8 °F 84.5 °F 64.9 °F 55% 29.85 in 7.0 mi NNE 4.6 mph - N/A   Clear
9:35 PM 81.9 °F 83.7 °F 65.3 °F 57% 29.85 in 7.0 mi NNE 5.8 mph - N/A   Clear
9:55 PM 81.1 °F 83.1 °F 65.5 °F 59% 29.86 in 10.0 mi NE 3.5 mph - N/A   Clear
10:15 PM 81.0 °F 83.0 °F 65.8 °F 60% 29.86 in 10.0 mi NE 3.5 mph - N/A   Clear
10:35 PM 80.6 °F 82.7 °F 66.2 °F 61% 29.86 in 10.0 mi NE 3.5 mph - N/A   Clear
10:55 PM 78.8 °F - 66.6 °F 66% 29.86 in 7.0 mi NE 3.5 mph - N/A   Clear
11:15 PM 77.2 °F - 67.5 °F 72% 29.87 in 10.0 mi NE 3.5 mph - N/A   Clear
11:35 PM 77.4 °F - 67.5 °F 71% 29.87 in 7.0 mi NE 3.5 mph - N/A   Clear
11:55 PM 77.2 °F - 67.8 °F 73% 29.87 in 7.0 mi NNE 5.8 mph - N/A   Clear